Flag Weather past 2 weeks in Kyiv, Ukraine

Now
25 °F

Light snow. Clear.


Feels Like: 18 °F
Forecast: 20 / 27 °F
Wind: 6 mph from Northeast

Location: Kyiv

Current Time: Nov 27, 2014 at 1:07:56 PM

Latest Report: Nov 27, 2014 at 12:30 PM


Visibility: N/A

Pressure: 30.30 "Hg

Humidity: 74%

Dew point: 18 °F

Location of KyivLocation

Historic Weather in Kyiv — Graph

°F

Kyiv temperature yesterday

Maximum temperature yesterday: 23 °F (at 12:00 AM)
Minimum temperature yesterday: 23 °F (at 12:00 AM)
Average temperature yesterday: 23 °F

Past Weeks' High & Low Weather Summary

 TemperatureHumidityPressure
High43 °F (Nov 14, 2:00 AM)100% (Nov 14, 10:30 PM)30.57 "Hg (Nov 14, 10:30 PM)
Low16 °F (Nov 24, 9:00 PM)36% (Nov 21, 1:00 PM)30.18 "Hg (Nov 12, 3:30 PM)
Average32 °F83%30.32 "Hg
* Reported Nov 12 12:00 Noon — Nov 27 12:00 Noon, Kyiv, Weather by CustomWeather, © 2014

Note: Actual official high and low records may vary slightly from our data, if they occured in-between our weather recording intervals... More about our weather records

Advertising

Kyiv weather history for previous 24 hours

 ConditionsComfort  
Time TempWeatherWind HumidityBarometerVisibility
12:00 PM
Nov 27
23 °FLight snow. Clear.6 mph80%30.30 "HgN/A
11:30 AM23 °FLight snow. Clear.3 mph80%30.30 "HgN/A
11:00 AM23 °FLight snow. Clear.3 mph80%30.33 "HgN/A
10:30 AM23 °FLight snow. Overcast.3 mph80%30.33 "HgN/A
10:00 AM23 °FLight snow. Overcast.6 mph80%30.33 "HgN/A
9:30 AM23 °FLight snow. Overcast.3 mph74%30.33 "HgN/A
9:00 AM21 °FLight snow. Overcast.6 mph80%30.33 "HgN/A
8:30 AM21 °FLight snow. Overcast.6 mph80%30.33 "HgN/A
8:00 AM21 °FLight snow. Overcast.6 mph80%30.33 "HgN/A
7:30 AM21 °FLight snow. Overcast.6 mph80%30.33 "HgN/A
7:00 AM21 °FLight snow. Overcast.3 mph86%30.33 "HgN/A
6:30 AM21 °FClear.6 mph80%30.33 "Hg10 mi
6:00 AM21 °FClear.8 mph80%30.33 "Hg10 mi
5:30 AM21 °FLight snow. Overcast.6 mph86%30.30 "HgN/A
5:00 AM23 °FLight snow. Overcast.6 mph74%30.30 "HgN/A
4:30 AM23 °FLight snow. Overcast.6 mph80%30.30 "HgN/A
4:00 AM21 °FLight snow. Overcast.8 mph86%30.33 "Hg6 mi
3:30 AM21 °FLight snow. Overcast.6 mph86%30.33 "Hg6 mi
3:00 AM21 °FLight snow. Overcast.6 mph86%30.33 "Hg6 mi
2:30 AM21 °FLight snow. Overcast.8 mph86%30.33 "Hg6 mi
1:30 AM23 °FLight snow. Overcast.8 mph80%30.33 "HgN/A
1:00 AM23 °FLight snow. Overcast.6 mph80%30.33 "Hg6 mi
12:30 AM23 °FLight snow. Overcast.6 mph80%30.33 "Hg5 mi
12:00 AM23 °FLight snow. Mostly cloudy.3 mph80%30.36 "Hg5 mi
11:30 PM
Nov 26
23 °FLight snow. Overcast.3 mph80%30.36 "Hg6 mi
11:00 PM23 °FLight snow. Overcast.3 mph80%30.36 "Hg6 mi
10:30 PM23 °FLight snow. Overcast.6 mph80%30.36 "Hg6 mi
10:00 PM23 °FLight snow. Overcast.3 mph80%30.36 "Hg6 mi
9:30 PM23 °FLight snow. Mostly cloudy.6 mph80%30.36 "Hg6 mi
9:00 PM23 °FLight snow. Mostly cloudy.3 mph80%30.36 "Hg6 mi
8:30 PM23 °FLight snow. Mostly cloudy.6 mph80%30.36 "HgN/A
8:00 PM23 °FLight snow. Mostly cloudy.6 mph80%30.36 "Hg6 mi
7:30 PM23 °FLight snow. Mostly cloudy.6 mph80%30.36 "Hg6 mi
7:00 PM23 °FLight snow. Mostly cloudy.6 mph86%30.36 "Hg6 mi
6:30 PM23 °FLight snow. Mostly cloudy.3 mph80%30.36 "Hg6 mi
6:00 PM23 °FLight snow. Overcast.6 mph80%30.36 "Hg6 mi
5:30 PM23 °FLight snow. Mostly cloudy.6 mph86%30.36 "Hg6 mi
5:00 PM23 °FLight snow. Mostly cloudy.3 mph86%30.36 "Hg6 mi
4:30 PM23 °FLight snow. Mostly cloudy.6 mph86%30.36 "Hg6 mi
4:00 PM23 °FLight snow. Mostly cloudy.6 mph80%30.36 "Hg5 mi
3:30 PM23 °FLight snow. Overcast.6 mph80%30.36 "Hg4 mi
3:00 PM23 °FLight snow. Overcast.6 mph86%30.39 "Hg5 mi
2:30 PM23 °FLight snow. Overcast.6 mph80%30.39 "Hg6 mi
2:00 PM23 °FLight snow. Overcast.6 mph80%30.39 "HgN/A
1:30 PM23 °FLight snow. Overcast.6 mph80%30.39 "HgN/A
1:00 PM23 °FOvercast.6 mph80%30.39 "HgN/A
Weather by CustomWeather, © 2014

See weather overviewHow to use our weather pages